Location: Czernica
(51.0462°N, 17.2458°E)
Time: 07:51:22
(UTC+01:00)

ISS - Pass Details

Date: 26 January 2019
Orbit: 403 x 411 km, 51.6° (Epoch: 21 February)

Event Time Altitude Azimuth Distance (km) Brightness Sun altitude
Rises 17:35:48 0° 218° (SW) 2,324 1.0 -10.2°
Reaches altitude 10° 17:38:04 10° 205° (SSW) 1,469 -0.4 -10.5°
Maximum altitude 17:40:52 26° 147° (SSE) 852 -2.4 -11.0°
Enters shadow 17:42:46 16° 99° (E) 1,180 -2.0 -11.2°
